Flag for Japan Weather past 2 weeks in Hamamatsu, Japan

Now
82 °F

Smoke.


Feels Like: 87 °F
Forecast: 76 / 90 °F
Wind: 21 mph from West

Location: Omaezaki

Current Time: Jul 24, 2014 at 4:22:16 PM

Latest Report: Jul 24, 2014 at 3:00 PM


Visibility: 6 mi

Pressure: 29.63 "Hg

Humidity: 74%

Dew point: 73 °F

Location of HamamatsuLocation

Historic Weather in Hamamatsu — Graph

°F

Hamamatsu temperature yesterday

Maximum temperature yesterday: 82 °F (at 10:00 AM)
Minimum temperature yesterday: 76 °F (at 11:00 PM)
Average temperature yesterday: 79 °F

Past Weeks' High & Low Weather Summary

 TemperatureHumidityPressure
High85 °F (Jul 12, 2:00 PM)100% (Jul 9, 11:00 PM)29.96 "Hg (Jul 9, 11:00 PM)
Low69 °F (Jul 19, 3:00 PM)54% (Jul 12, 10:00 AM)29.21 "Hg (Jul 11, 1:00 AM)
Average77 °F92%29.77 "Hg
* Reported Jul 9 5:00 PM — Jul 24 3:00 PM, Hamamatsu, Weather by CustomWeather, © 2014

Note: Actual official high and low records may vary slightly from our data, if they occured in-between our weather recording intervals... More about our weather records

Advertising

Hamamatsu weather history for previous 24 hours

 ConditionsComfort  
Time TempWeatherWind HumidityBarometerVisibility
3:00 PM
Jul 24
82 °FSmoke.21 mph74%29.63 "Hg6 mi
2:00 PM84 °FWarm.23 mph68%29.63 "Hg7 mi
1:00 PM81 °FWarm.20 mph75%29.64 "Hg6 mi
12:00 PM81 °FFog.22 mph76%29.64 "Hg6 mi
11:00 AM81 °FFog.18 mph77%29.65 "Hg4 mi
10:00 AM81 °FFog.20 mph76%29.64 "Hg5 mi
9:00 AM80 °FFog.18 mph78%29.65 "Hg5 mi
8:00 AM79 °FWarm.15 mph79%29.65 "Hg6 mi
7:00 AM78 °FFog.16 mph85%29.65 "Hg4 mi
6:00 AM77 °FFog.15 mph87%29.65 "Hg3 mi
5:00 AM77 °FFog.12 mph90%29.65 "Hg3 mi
4:00 AM77 °FFog.13 mph97%29.64 "Hg3 mi
3:00 AM76 °FFog.10 mph100%29.65 "Hg2 mi
2:00 AM74 °FFog.8 mph100%29.65 "Hg1 mi
1:00 AM75 °FFog.8 mph100%29.67 "Hg1 mi
12:00 AM75 °FFog.7 mph100%29.68 "Hg1 mi
11:00 PM
Jul 23
76 °FFog.7 mph100%29.69 "Hg1 mi
10:00 PM76 °FFog.10 mph100%29.70 "Hg3 mi
Weather by CustomWeather, © 2014

See weather overviewHow to use our weather pages